Find Starlink 30961

NORAD ID: 58445 Int'l Des: 2023-183 Owner: SPXS Country: US Constellation: starlink operational
LEOCIRCULAR

当前视图

正在加载3D地球...

About Starlink 30961

Starlink 30961 (NORAD 58445) is a starlink constellation satellite (v2 mini) launched Nov 28, 2023 by SPXS of US. It operates in LEO, CIRCULAR orbit with a mass of 730.00 kg.

关于 Starlink 30961

正在加载描述...

即将过境

Passes for default location (London). Set your location on the main map for personalized predictions.

高度历史

Loading altitude history...

两行轨道根数

1 58445U 23183J 26166.81608856 .00002385 00000-0 96214-4 0 9990
2 58445 43.0008 207.2675 0001356 263.5306 96.5391 15.27564347141746
Epoch: Jun 15, 2026 • Age: 13 hours

当前状态

高度 482.4 km
速度 7.63 km/s
星下点 7.92°N, 174.65°W
发射日期 Nov 28, 2023
运行时间 2.5 years
类型 internet

技术详情

分类 Payload
质量 730.00 kg
干质量 700.00 kg
总质量 730.00 kg
长度 0.30 m
直径 4.10 m
跨度 29.00 m
形状 Box + pan
制造商 SPXS
平台类型 Starlink V2M
阶段状态 In Orbit
所有者/国家 SPXS/US

Most Searched